Погода в Новониколаевке

Россия / Астраханская область     48°02′56″N   46°21′54″E
темп.,
°C
ветер,
м/с
пор.,
м/с
влажн.,
%
обл.,
%
осадки,
мм/ч
давл.,
гПа
погр.,
м
24 сентября, пт
пт2401:00+11ссз3584100 0.0 1012142
04:00+11с3486100 0.0 101286
07:00+12ссз5882100 0.0 1010296
10:00+10с5888100 3.7 1011292
13:00+11ссз5789100 3.6 1011435
16:00+12ссз5887100 4.3 1011483
19:00+11зсз5785100 0.0 1011389
22:00+11з4879100 0.0 1011318
25 сентября, сб
сб2501:00+10з47825 0.0 1011132
04:00+9зюз348311 0.0 101159
07:00+10зюз3587100 0.0 101183
10:00+15юз3562100 0.0 1011431
13:00+14юз3763100 0.0 1011519
16:00+14зюз496692 0.0 1012823
19:00+13зюз71377100 0.1 1012670
22:00+11ююз5109023 0.9 1013273
26 сентября, вс
вс2601:00+11юз51088100 0.0 1012250
04:00+10з498420 0.0 1013228
07:00+9з498927 0.0 1013206
10:00+13з5874100 0.0 1014434
13:00+17з794894 0.0 10131690
16:00+16зюз7104887 0.0 10121205
19:00+12юз51183100 0.8 1011680
22:00+13зюз6118788 1.8 1008569
27 сентября, пн
пн2701:00+12зюз5129136 1.0 1006340
04:00+11зсз8148518 1.2 1007501
07:00+9зсз713874 0.0 1009585
10:00+12зсз9117146 0.0 1010912
13:00+15сз8105579 0.1 10111638
16:00+15сз795093 0.3 10121860
19:00+13сз6106899 0.0 1014673
22:00+12зсз4870100 0.0 1015392
28 сентября, вт
вт2801:00+12сз3778100 0.1 1015268
04:00+12ссз477993 0.1 1017294
07:00+9ссз36895 0.0 1018165
10:00+13св557262 0.0 1020743
13:00+14ссв5558100 0.0 10221270
16:00+12св5563100 0.0 1023824
19:00+11ссв465725 0.0 1025543
22:00+10ссв226176 0.0 102632